Wetbulb
54.50 54.06 54.38 54.28 54.70 55.93 56.61 57.90 61.13 70.82 70.95 70.43 70.74 71.10 71.35 71.48 71.58 71.42 72.41 69.87 71.10 73.28 72.00 72.03 72.12 71.39 70.17 70.59 70.72 70.23 68.85 67.88
53.75 56.33 56.28 54.41 55.20 54.94 56.09 57.62 60.41 65.51 69.55 68.48 69.07 69.39 70.04 69.69 71.14 71.68 71.90 70.48 69.81 70.59 71.34 71.44 69.83 71.14 70.89 69.27 68.84 68.88 68.16 68.67
49.01 51.53 54.46 56.37 57.68 55.94 55.91 56.48 58.13 59.08 69.33 69.55 69.50 69.95 70.35 70.36 70.95 71.94 71.73 72.31 69.49 69.04 68.98 70.36 68.45 69.66 71.08 70.78 67.66 66.17 67.15 67.62
44.89 47.42 50.63 54.19 56.62 58.34 54.24 54.74 56.43 58.37 61.23 69.45 68.05 69.49 69.77 68.56 69.13 69.49 70.67 71.29 68.90 68.70 68.39 70.69 70.57 70.48 69.85 70.09 67.44 65.96 64.90 66.74
41.55 42.92 45.90 49.96 53.00 58.95 56.75 54.65 55.04 57.05 57.81 66.87 66.84 66.98 66.30 67.23 67.54 68.46 69.14 70.17 69.13 68.32 68.03 70.29 71.41 70.71 69.47 68.63 66.85 66.80 66.55 64.33
38.00 38.48 41.71 47.12 49.82 53.40 57.78 55.60 54.00 56.27 57.83 64.68 67.81 67.09 68.04 68.39 68.06 68.24 69.21 70.24 70.67 69.52 68.19 69.96 70.75 70.06 67.02 66.34 66.05 65.94 65.87 64.50
38.69 37.58 39.16 41.91 46.12 48.17 52.95 56.10 53.40 55.85 56.79 62.49 67.76 67.36 68.03 67.20 67.48 67.92 68.11 69.36 69.67 70.61 70.34 69.78 69.63 68.14 67.66 66.07 65.34 65.16 65.40 65.01
37.00 34.68 34.62 37.67 40.54 43.44 45.82 48.12 51.46 54.36 58.38 59.67 67.32 66.03 67.58 68.17 67.93 67.85 68.51 68.16 68.34 69.48 68.61 68.33 67.80 68.21 67.52 63.64 62.08 61.12 61.52 63.42
35.22 34.30 33.79 34.47 37.67 39.77 42.05 43.65 45.45 49.19 49.95 50.67 56.27 56.49 63.83 67.47 68.74 69.65 69.38 68.30 67.45 68.67 68.05 66.32 66.15 67.17 65.00 64.73 63.22 61.04 61.46 63.20
33.71 33.41 32.94 33.79 35.62 37.24 39.19 41.04 44.22 46.09 46.73 48.60 50.19 52.32 56.76 55.80 57.37 63.17 64.97 65.25 64.61 65.20 64.78 64.72 64.21 65.61 65.77 65.91 64.88 63.21 63.19 63.65
33.26 32.22 32.00 33.31 34.01 37.85 39.33 41.68 43.03 44.58 45.90 47.45 47.85 49.67 52.09 53.40 54.35 53.81 55.71 56.99 59.93 62.12 63.62 64.38 64.43 63.81 65.27 66.56 65.92 65.43 65.11 65.23
32.19 31.83 32.01 32.52 33.23 34.70 36.85 37.52 38.28 41.22 42.53 45.38 46.92 47.40 49.54 50.97 50.05 49.99 52.18 54.23 55.16 55.90 57.59 59.13 61.25 62.98 63.59 63.55 64.27 65.23 64.64 65.11
32.19 32.73 32.17 31.83 31.90 32.96 34.94 36.24 39.15 40.69 41.48 42.43 43.91 44.62 46.92 46.31 45.98 47.06 50.07 50.62 52.69 53.31 54.53 54.93 55.69 57.07 58.78 60.01 61.60 62.34 62.22 62.01
31.83 31.81 31.50 31.64 31.59 31.92 32.78 35.86 34.63 35.68 37.31 38.35 40.28 42.15 44.70 44.32 43.43 45.60 47.74 47.84 48.51 51.15 51.81 52.25 53.31 54.86 55.71 56.84 57.54 58.55 60.49 62.74
31.36 31.30 31.20 31.59 31.47 31.56 32.13 33.14 33.16 34.14 35.67 35.31 36.86 38.08 40.25 40.69 42.39 44.49 46.34 46.70 47.34 48.09 48.41 48.57 49.66 51.21 53.04 54.28 55.12 56.32 58.52 59.86
31.13 30.82 31.07 31.15 30.96 31.46 32.81 33.89 34.35 35.79 34.44 35.20 35.07 37.31 38.89 39.91 41.98 42.51 44.39 45.03 45.47 45.90 44.41 46.26 47.58 48.15 49.99 48.65 50.16 52.44 54.17 56.90
30.55 31.14 31.33 30.53 30.78 31.41 33.47 34.94 35.56 36.30 34.81 34.88 35.46 35.76 37.66 38.78 38.55 40.49 40.30 41.98 42.70 43.16 42.79 42.88 43.08 44.76 40.21 38.16 38.77 42.79 45.67 48.42
29.96 30.22 30.26 30.65 30.73 31.80 32.03 33.27 35.10 33.87 35.13 34.88 34.74 35.75 35.98 36.65 37.03 37.22 37.80 38.83 40.88 40.00 40.11 40.27 40.13 41.33 37.09 36.49 35.67 37.42 39.07 42.45
30.56 30.59 30.51 30.26 30.73 31.84 32.50 32.78 33.27 32.77 32.80 33.46 35.01 35.71 34.79 35.49 36.22 35.88 35.88 37.71 38.98 38.57 38.07 37.27 36.89 37.20 35.19 34.63 34.07 36.14 40.55 44.41
MSLP
1005.44 1004.79 1004.54 1004.58 1004.42 1004.23 1004.11 1004.05 1003.83 1003.87 1004.68 1005.83 1005.89 1005.33 1005.77 1006.36 1007.16 1007.57 1007.97 1009.55 1009.75 1009.30 1009.75 1010.50 1011.03 1011.31 1012.12 1012.40 1012.22 1012.77 1013.05 1013.33
1007.93 1006.39 1004.95 1004.38 1004.26 1004.06 1003.95 1003.64 1003.33 1003.09 1003.30 1004.36 1005.06 1004.27 1004.51 1005.20 1005.71 1006.39 1006.93 1008.48 1009.43 1009.60 1009.52 1010.16 1011.12 1010.83 1011.48 1012.61 1012.73 1012.53 1012.84 1013.20
1010.06 1008.75 1007.02 1005.40 1003.97 1003.48 1003.21 1003.20 1003.02 1002.52 1002.04 1002.96 1003.99 1004.15 1003.67 1004.04 1004.45 1005.23 1006.12 1007.01 1008.59 1009.58 1009.72 1009.62 1010.92 1010.92 1010.81 1011.63 1012.68 1013.12 1013.22 1013.71
1011.43 1010.15 1008.47 1006.59 1004.75 1002.86 1002.53 1002.37 1002.35 1001.99 1001.60 1001.69 1003.05 1003.83 1003.65 1003.86 1003.42 1004.42 1005.47 1006.01 1007.46 1008.74 1009.35 1009.45 1009.76 1010.39 1010.26 1011.17 1012.16 1013.04 1013.26 1013.56
1013.16 1011.80 1010.06 1007.60 1005.43 1001.94 1001.65 1001.70 1001.78 1001.57 1001.14 1000.39 1001.27 1002.01 1001.93 1002.26 1002.68 1003.32 1004.93 1005.62 1006.42 1007.70 1008.67 1009.20 1009.18 1009.37 1009.90 1011.05 1012.01 1012.69 1012.80 1013.09
1014.07 1013.30 1011.68 1009.29 1007.28 1004.50 1001.70 1001.04 1001.17 1000.91 1000.36 1000.06 1000.00 1001.16 1001.43 1001.56 1001.91 1002.23 1003.60 1004.81 1005.42 1006.46 1007.80 1008.53 1008.91 1009.37 1010.16 1011.08 1012.17 1012.91 1013.21 1013.21
1015.21 1014.53 1013.10 1011.27 1009.07 1006.71 1004.18 1002.30 1000.79 1000.55 1000.13 999.48 999.03 1000.14 1000.19 1000.57 1001.00 1001.14 1002.08 1003.55 1004.39 1005.14 1006.30 1007.18 1008.15 1009.14 1009.64 1010.06 1010.53 1012.00 1013.26 1012.84
1016.08 1015.12 1013.89 1012.30 1010.58 1008.57 1006.46 1005.25 1003.80 1002.37 1000.68 999.82 998.66 999.22 999.99 999.87 1000.25 1000.62 1000.99 1002.92 1003.96 1004.44 1005.27 1006.25 1007.29 1008.40 1009.33 1009.68 1009.07 1009.50 1009.96 1011.22
1016.73 1015.45 1014.05 1013.34 1012.08 1010.43 1008.66 1007.47 1006.02 1003.82 1002.05 1001.56 1000.51 999.16 1000.34 999.95 999.92 1000.56 1001.13 1002.69 1003.55 1004.60 1005.15 1006.12 1007.05 1007.87 1008.71 1009.00 1008.94 1009.04 1009.07 1009.97
1017.43 1016.15 1015.22 1015.60 1014.28 1012.54 1010.82 1008.84 1006.99 1005.02 1003.53 1003.26 1000.66 999.95 1002.35 1002.36 1001.87 1001.79 1002.31 1003.47 1004.19 1005.14 1005.45 1006.08 1006.75 1007.41 1007.80 1008.10 1008.37 1008.32 1008.76 1009.05
1018.32 1017.65 1017.39 1016.86 1015.64 1013.47 1011.82 1010.04 1008.24 1006.87 1004.83 1004.72 1001.54 1004.03 1004.40 1003.89 1003.15 1002.94 1003.85 1004.27 1004.75 1005.24 1005.59 1006.12 1006.52 1007.08 1007.27 1007.33 1007.55 1007.81 1008.12 1008.44
1019.61 1019.27 1018.40 1017.44 1016.21 1014.80 1013.42 1011.82 1009.91 1008.04 1006.67 1006.34 1006.59 1006.39 1006.20 1004.96 1004.51 1005.46 1005.35 1004.44 1006.03 1006.01 1005.86 1005.80 1006.23 1006.65 1007.04 1007.35 1007.29 1007.32 1007.37 1007.74
1020.58 1019.94 1018.85 1017.71 1016.18 1015.78 1014.35 1012.79 1010.82 1009.26 1008.09 1007.88 1009.18 1007.31 1008.85 1006.09 1005.64 1006.49 1006.26 1006.70 1007.78 1007.40 1006.97 1006.57 1006.65 1007.21 1007.29 1007.16 1007.31 1007.47 1007.31 1007.33
1020.70 1019.77 1018.82 1018.07 1016.45 1015.06 1014.23 1012.60 1011.39 1009.82 1009.67 1008.80 1008.48 1009.35 1010.10 1006.18 1005.99 1006.51 1009.31 1009.75 1008.99 1007.64 1007.16 1006.66 1006.82 1007.38 1007.60 1007.16 1007.11 1006.82 1006.57 1006.29
1021.00 1020.04 1019.26 1018.46 1017.43 1015.97 1014.97 1014.29 1013.04 1012.62 1011.96 1009.67 1009.56 1010.94 1009.08 1008.12 1008.24 1009.65 1010.75 1009.69 1008.74 1008.60 1007.85 1007.27 1007.45 1008.15 1007.81 1007.42 1006.87 1006.62 1006.36 1005.84
1020.86 1020.25 1019.64 1018.90 1018.04 1016.80 1015.79 1014.85 1014.15 1013.13 1013.18 1012.90 1012.64 1012.54 1011.43 1011.47 1010.39 1011.23 1009.43 1008.60 1009.00 1008.29 1008.89 1008.58 1008.18 1008.10 1008.04 1008.65 1007.87 1007.37 1006.80 1005.78
1021.20 1020.47 1019.88 1019.45 1018.90 1018.16 1017.09 1016.03 1014.94 1014.08 1013.23 1013.29 1013.96 1012.71 1011.78 1011.65 1012.67 1011.38 1010.26 1010.92 1010.30 1010.16 1009.14 1008.64 1008.73 1008.78 1009.29 1009.76 1009.71 1009.24 1008.22 1007.15
1021.75 1021.35 1020.74 1020.00 1019.35 1018.67 1017.87 1017.19 1016.45 1015.18 1014.40 1014.60 1013.48 1013.04 1011.86 1012.33 1011.15 1010.25 1010.35 1010.48 1010.69 1010.35 1010.13 1009.94 1009.94 1010.09 1010.32 1010.96 1010.33 1009.54 1008.79 1007.55
1021.97 1021.84 1021.54 1021.21 1020.61 1019.64 1018.95 1018.19 1017.36 1016.44 1015.90 1015.75 1014.27 1013.86 1013.66 1012.48 1011.14 1011.37 1011.87 1011.48 1010.28 1010.26 1010.41 1010.50 1010.54 1010.87 1011.07 1010.66 1010.11 1009.28 1007.71 1006.33
Wind_Speed
25 23 21 19 20 21 20 17 19 18 15 14 13 12 12 13 15 14 18 12 15 13 12 11 11 10 9 10 11 11 10 9
31 31 26 21 20 21 23 20 18 13 15 15 14 15 13 13 13 19 17 15 14 14 11 10 10 11 12 11 8 10 8 7
25 27 28 27 25 22 21 23 21 19 14 15 14 13 14 13 13 15 18 18 15 12 12 13 12 12 12 13 10 6 4 6
25 26 27 29 29 25 22 24 24 21 22 15 14 14 12 13 13 12 14 15 15 15 14 13 13 13 10 11 10 9 7 6
23 25 27 27 30 22 23 22 24 22 23 19 22 18 17 14 14 13 13 17 18 15 14 16 12 10 9 7 7 7 8 9
23 23 26 27 26 27 19 21 22 23 25 22 18 21 16 13 13 19 17 16 18 18 18 17 14 6 7 8 5 2 5 7
21 22 24 24 24 24 24 25 21 23 26 22 26 24 19 16 16 14 14 12 13 17 18 15 12 12 14 13 14 9 9 11
21 23 22 22 25 24 19 21 18 15 16 18 28 20 24 20 18 14 16 11 9 13 15 13 13 14 14 12 12 15 16 15
23 24 22 25 24 22 20 16 14 13 15 15 9 13 11 10 15 11 11 11 12 13 12 13 14 17 15 13 8 10 10 14
23 24 21 21 20 20 18 16 14 15 16 14 12 18 7 6 9 7 6 8 8 10 11 14 14 15 15 13 10 11 11 13
20 19 19 17 21 17 17 16 13 12 15 14 18 13 9 8 11 12 11 8 4 4 6 8 8 9 12 14 12 12 12 11
18 16 15 14 15 16 15 16 16 15 17 15 15 11 9 10 10 10 9 10 5 3 2 2 5 7 7 6 8 10 13 13
15 15 15 14 14 14 14 15 17 17 18 20 6 15 13 9 13 16 12 10 6 3 1 1 4 7 9 11 13 9 11 13
15 15 16 16 15 15 17 18 18 19 17 14 19 16 8 20 17 15 9 6 6 6 7 6 6 8 10 10 13 14 15 16
15 16 16 16 16 17 16 17 15 12 15 20 20 17 19 16 17 12 7 8 9 9 9 8 8 10 12 12 13 15 16 16
18 17 17 18 19 18 18 16 15 16 15 17 16 14 14 13 14 12 14 15 13 14 12 10 10 9 8 15 16 17 17 17
19 20 20 20 19 18 19 18 18 18 16 18 15 14 16 16 12 12 13 13 12 11 14 14 13 10 16 21 18 14 17 16
18 19 19 19 19 19 18 19 18 18 18 17 18 17 20 17 16 18 19 17 15 15 13 14 13 13 18 19 19 15 16 15
17 16 17 18 19 18 18 18 20 20 20 18 19 20 17 18 19 20 17 15 17 16 14 15 14 12 19 22 23 18 16 18
Wind_Direction
322 300 296 296 284 275 266 254 263 202 196 212 225 202 192 197 189 220 185 195 218 210 206 176 228 183 199 224 216 187 225 195
329 327 313 293 287 267 266 263 255 249 196 202 214 211 194 193 199 196 201 184 206 218 212 177 198 219 196 197 238 222 204 233
331 322 314 311 296 272 257 254 255 255 208 204 211 216 199 194 196 191 195 187 187 204 200 191 183 228 217 182 186 204 208 205
333 327 322 319 311 272 258 248 254 251 254 197 203 216 212 201 194 194 194 194 171 192 198 216 191 207 211 180 171 198 194 203
335 334 326 324 320 282 258 249 250 248 251 213 194 209 207 197 194 183 195 200 185 184 194 210 223 192 219 148 163 204 209 205
342 342 333 326 335 334 309 247 248 249 255 227 200 212 212 195 193 180 194 188 185 180 192 202 217 153 127 130 139 250 259 237
345 347 341 339 340 344 344 343 252 245 249 237 207 206 211 200 190 187 176 182 187 187 183 193 170 163 161 165 166 180 241 253
349 355 348 341 344 346 348 351 343 340 314 291 207 198 212 206 190 190 166 172 188 193 188 170 173 168 174 174 176 185 200 229
357 359 356 346 341 339 345 350 348 14 35 25 318 47 238 220 203 178 164 173 185 191 169 159 176 179 190 207 221 229 209 220
356 359 1 340 329 342 345 345 357 18 31 37 357 53 24 55 61 65 110 144 149 173 167 172 186 196 208 228 240 242 219 217
355 357 350 339 338 341 343 344 8 14 42 35 34 35 37 35 48 70 56 55 56 147 161 187 186 206 231 225 228 230 217 225
351 346 343 336 341 343 351 357 4 22 33 38 38 27 31 62 43 42 85 53 33 28 79 194 237 238 235 254 257 249 239 243
341 341 342 348 350 344 353 3 19 26 28 34 40 45 16 67 49 40 24 30 350 343 336 311 268 257 251 252 243 233 242 244
348 347 353 352 355 356 358 7 11 19 20 32 40 43 309 37 49 38 7 359 343 358 10 3 329 302 278 270 262 259 252 241
352 354 355 359 356 356 3 12 18 13 24 22 23 19 18 16 27 23 351 8 12 8 8 1 343 313 301 290 283 275 266 257
358 358 358 358 360 2 0 4 9 26 27 30 27 20 27 30 24 6 13 16 10 6 356 357 348 333 313 351 330 311 298 282
360 357 359 1 360 357 7 3 9 13 16 29 19 11 21 33 18 20 29 16 15 5 7 6 356 342 353 1 353 320 305 294
2 2 359 359 1 0 2 4 9 14 17 8 9 5 18 13 17 19 17 12 6 14 8 5 356 341 14 350 337 323 296 280
0 2 4 1 357 359 2 9 16 14 12 7 9 10 10 3 18 16 8 2 8 7 7 4 359 351 357 342 333 309 298 278